Погода в Новоселенгинске

Поиск расширенной информации на нашем сайте:

Полезная информация:

Новости сайта



02.01.2020
Опубликован Долгосрочный прогноз погоды по городам России и ближнего зарубежья на январь 2020 года.
Карты: Прогноз на январь и февраль 2020 года, Сравнение прогнозируемой аномалии приземной температуры воздуха на январь 2020 года по разным моделям.




Погода в Новоселенгинске - сегодня

Время (UTC), дата Ветер
(°,м/с) 
Видим.   Явления Облачность Т
(°С)
Тd
(°С)
f(%) Тe
(°С)
Pmin
(гПа)
dP
(гПа)
Po
(мм)
O2
(г/м3)
Тmin Tmax R s Состояние
почвы
21 23.11.20 200 (Ю) 50000 м  в посл. час ливневой снег  10/4 600 м кучево-дожд., средняя 
[Cb cap|Ac As]
-4.1 -5.8 88 -4  1030.3  0.3  720  295           
00 24.11.20 тихо ()   50000 м  {ливн. осадки}  10/3 1000 м кучево-дожд., средняя 
[Cb cap|Ac As]
-4.9 -5.7 94 -5  1031.6  721  296  -5.3    0.0  равномерный
сухой снег
100% 
03 24.11.20 020 (С) 20000 м    10/4 600 м кучево-дожд., средняя 
[Cb cap|Ac und]
-2 -7.1 68 -5  1032.8  1.9  723  294           
06 24.11.20 360 (С) 20000 м    10/4 600 м кучево-дожд., средняя 
[Cb cap|Ac und]
-2.7 -8.4 65 -6  1033.4  0.4  723  295           
09 24.11.20 340 (С) 5{10}  20000 м    8/3 1000 м верхняя 
[Sc|Ci fib]
-5.6 -10.5 68 -10  1035.1  0.9  724  299           
12 24.11.20 070 (В) 50000 м    10/4 600 м кучево-дожд., средняя 
[Cb cap|Ac und]
-5 -10 68 -7  1036.8  1.7  725  298    -1.5       
15 24.11.20 350 (С) 50000 м    10/3 600 м кучево-дожд., средняя 
[Cb cap|Ac As]
-6.1 -8.9 81 -8  1038.7  1.5  726  300           
18 24.11.20 330 (СЗ) 50000 м    10/3 600 м кучево-дожд., средняя 
[Cb cap|Ac As]
-6.7 -9.3 82 -9  1039.5  0.6  726  301           
21 24.11.20 тихо ()   50000 м    10/3 600 м кучево-дожд., средняя, верхняя 
[Cb cap|Ac und|Ci fib]
-8.2 -10.4 84 -8  1040.3  0.4  727  303           
00 25.11.20 160 (Ю) 50000 м    10/8 1200 м средняя 
[Sc|Ac As]
-10.2 -12.2 85 -10  1041.6  0.7  727  305  -10.2      равномерный
сухой снег
100% 
03 25.11.20 210 (ЮЗ) 20000 м    10/4 1000 м кучево-дожд., средняя, верхняя 
[Cb cap|Ac trans|Ci fib]
-8.5 -11.7 78 -8  1041.6  0.5  728  304  -10.2         
06 25.11.20 100 (В) 20000 м    6/3 600 м кучево-дожд., средняя, верхняя 
[Cb cap|Ac lent|Ci fib]
-4.8 -11.5 59 -4  1039.6  -0.9  727  299           
09 25.11.20 040 (СВ) 20000 м    10/4 1000 м кучево-дожд., средняя, верхняя 
[Cb cap|Ac trans|Ci fib]
-6.2 -11 69 -8  1040  727  301           
12 25.11.20 360 (С) 50000 м    10/0 средняя 
[Ac und]
-9 -11.8 80 -9  1041.7  0.8  727  304    -3.9       
15 25.11.20 260 (З) 50000 м    8/0 средняя 
[Ac trans]
-13.2 -15 86 -13  1043.6  0.7  728  309           
18 25.11.20 тихо ()   50000 м    10/3 600 м кучево-дожд., средняя 
[Cb cap|Ac und]
-12.8 -14.4 88 -13  1043.4  0.1  728  309           
21 25.11.20 240 (ЮЗ) 50000 м    10/3 600 м кучево-дожд., средняя 
[Cb cap|Ac As]
-12.4 -14.2 86 -12  1043.1  -0.2  728  308           
00 26.11.20 250 (З) 50000 м    10/3 1000 м средняя 
[Sc|Ac und]
-13.1 -14.6 88 -13  1044.1  0.8  728  309  -14.1      равномерный
сухой снег
100% 
03 26.11.20 220 (ЮЗ) 20000 м    8/3 1000 м средняя 
[Sc|Ac trans]
-10.5 -13.2 81 -12  1044.5  1.1  729  307           
06 26.11.20 200 (Ю) 20000 м    8/3 1000 м средняя 
[Sc|Ac trans]
-6.5 -11.6 67 -8  1042.6  -0.7  729  302           
09 26.11.20 290 (З) 20000 м    10/5 1000 м верхняя 
[Sc|Ci fib]
-8.2 -12.2 73 -8  1043.8  0.7  729  304           
12 26.11.20 310 (СЗ) 50000 м    10/0 средняя 
[Ac und]
-9 -12 79 -9  1045.4  1.3  730  305    -5.5       
15 26.11.20 300 (СЗ) 50000 м    10/0 средняя 
[Ac und]
-10 -12.8 80 -12  1046.3  0.6  731  307           
18 26.11.20 330 (СЗ) 50000 м    4/0 средняя, верхняя 
[Ac lent|Ci fib]
-14.7 -16.5 86 -17  1048.4  0.6  731  313           
21 26.11.20 тихо ()   50000 м    ясно 
-15.1 -16.7 88 -15  1048.6  731  313           
Время (UTC), дата Ветер
(°,м/с) 
Видим.   Явления Облачность Т
(°С)
Тd
(°С)
f(%) Тe
(°С)
Pmin
(гПа)
dP
(гПа)
Po
(мм)
O2
(г/м3)
Тmin Tmax R s Состояние
почвы

Для получения пояснительной информации подведите курсор к названию столбца.

ПОГОДА в Новоселенгинске - архив

Всё, что Вы хотите узнать о погоде в Новоселенгинске - удобно и подробно!

Выберите нужную дату (начиная с 1 января 2019* года) и нажмите кнопку "Найти".
Будут отображены архивные сводки погоды по пункту Новоселенгинск, начиная с указанной даты.


Отображать данные в формате CSV (для использования в таблицах Excel)


Внимание! Наш архив погоды предназначен исключительно для личного некоммерческого использования в познавательных целях. Если Вам необходимы официальные справки о состоянии погоды (для производственных, юридических, коммерческих и т.п. целей), обращайтесь в органы Росгидромета.

*Примечание: данная дата относится к архиву по метеостанциям СССР (Россия, СНГ, Балтия).
Архив по метеостанциям Зарубежной Европы и Азии (кроме Китая) хранится 10 дней, по другим регионам земного шара (Китай, Африка, Америка, Австралия, Океания) - 1 день.

Новоселенгинск - район местоположения метеостанции


Название, широта, долгота, высота метеостанции:
Новоселенгинск 51.1°ш. 106.6°д. 556 м над ур. моря [Российская Федерация]

Дополнительная информация

В oтличие oт бoльшинства пoгoдных сайтoв мы публикуем пoдрoбную метеoинфoрмацию в детальнoм прoфессиoнальнoм фoрмате.

Характеристики температуры и влажнoсти вoздуха измеряются на высoте 2 м в тени вдали oт зданий и деревьев.
Скoрoсть ветра измеряется на высoте 10 м (на урoвне рoста челoвека скoрoсть ветра ниже в 1.5-2 раза). Если метеoстанция нахoдится в гoрoде или в лесу, тo скoрoсть ветра занижена на 2-4 м/с пo сравнению с oткрытым местoм. Скoрoсть ветра над акватoриями крупных рек и oзёр, а также на вершинах хoлмoв на 2-5 м/с выше, чем в oбычных услoвиях.
Атмoсфернoе давление в разных тoчках местнoсти мoжет значительнo oтличаться oт давления на метеoстанции, в зависимoсти oт услoвий рельефа (при пoдъёме на 10 м давление пoнижается примернo на 1 мм рт.ст.).